Temperature
18 18 18 18 18 18 18 18 18 18 18 18 18 18 18 18 18 18 18 18 18 17 17 17 17 17 17 17 17 17 17 17 17 17 17 17 17 17 18 18 18 18 18
19 19 18 18 18 18 18 18 18 18 18 18 18 18 18 18 18 18 18 18 17 17 17 17 17 17 17 17 17 17 17 17 17 17 17 17 17 17 17 17 18 18 18
19 19 19 19 19 18 18 18 18 18 18 18 18 18 18 18 18 18 18 18 18 18 18 18 17 17 17 17 17 17 17 17 17 17 17 17 17 17 17 17 17 17 17
19 19 19 19 19 19 18 18 18 18 18 18 18 18 18 18 18 18 18 18 18 18 18 18 17 18 17 17 17 17 17 17 17 17 17 17 17 17 17 17 17 17 17
19 19 19 19 19 19 19 18 18 18 18 18 18 18 18 18 18 18 18 18 18 18 18 17 17 17 17 17 17 17 17 17 17 17 17 17 17 17 17 17 17 17 17
19 19 19 19 19 19 19 19 18 18 18 18 18 18 18 18 18 18 18 18 18 18 18 17 17 17 17 17 17 17 17 17 17 17 17 17 17 17 17 17 17 17 17
20 19 19 19 19 19 19 19 18 18 18 18 18 18 18 18 18 18 18 18 18 18 18 17 17 17 17 17 17 17 17 17 17 17 17 17 17 17 17 17 17 17 17
20 19 19 19 19 19 19 19 18 18 18 18 18 18 18 18 18 18 18 18 18 18 18 18 18 17 17 17 17 17 17 17 17 17 17 17 17 17 17 17 17 17 17
20 19 19 19 19 19 19 19 18 18 18 18 18 18 18 18 18 18 18 18 18 18 18 18 18 17 17 17 17 17 17 17 17 17 17 17 17 17 17 17 17 17 17
19 19 19 19 19 19 19 19 18 18 18 18 18 18 18 18 18 18 18 18 18 18 18 18 18 17 17 17 17 17 17 17 17 17 17 17 17 17 17 17 17 17 17
19 19 19 19 19 19 19 18 18 18 18 18 18 18 18 18 18 18 18 18 18 18 18 18 17 17 17 17 17 17 17 17 17 17 17 17 17 17 17 17 17 17 17
19 19 19 19 19 19 19 18 18 18 18 18 18 18 18 18 18 18 18 18 18 18 18 18 17 17 17 17 17 17 17 17 17 17 17 17 17 17 17 17 17 17 17
19 19 19 19 19 19 18 18 18 18 18 18 18 18 18 18 18 18 18 18 18 18 18 18 17 17 17 17 17 17 17 17 17 17 17 17 17 17 17 17 17 17 17
19 19 19 19 19 19 18 18 18 18 18 18 18 18 18 18 18 18 18 18 18 18 18 18 18 18 18 17 17 17 18 17 17 17 17 17 18 17 17 17 17 17 17
20 19 19 19 19 19 18 18 18 18 18 18 18 18 18 18 18 18 18 18 18 18 18 18 18 18 18 18 18 18 18 17 17 17 17 17 17 17 17 17 17 17 17
20 19 19 19 19 19 18 18 18 18 18 18 18 18 18 18 18 18 18 18 18 18 18 18 18 18 18 18 18 18 18 17 17 17 17 17 17 17 17 17 17 17 17
20 19 19 19 19 18 18 18 18 18 18 18 18 18 18 18 18 18 18 18 18 18 18 18 18 18 18 18 18 17 17 17 17 17 17 17 17 17 17 17 17 17 17
20 19 19 19 19 19 18 18 18 18 18 18 18 18 18 18 18 18 18 18 18 18 18 18 18 18 18 18 18 17 17 17 17 17 17 17 17 17 17 17 17 17 17
20 20 19 19 19 19 18 18 18 18 18 18 18 18 18 18 18 18 18 18 18 18 18 18 18 18 18 18 17 17 17 17 17 17 17 17 17 17 17 17 17 17 17
20 20 19 19 19 19 18 18 18 18 18 18 18 18 18 18 18 18 18 18 18 18 18 18 18 18 18 17 17 17 17 17 17 17 17 17 17 17 17 17 17 17 17
20 20 20 19 19 19 19 18 18 18 18 18 18 18 18 18 18 18 18 18 18 18 18 18 18 18 17 17 17 17 17 17 17 17 17 17 17 17 17 17 17 17 17
20 20 20 19 19 19 19 19 18 18 18 18 18 18 18 18 18 18 18 18 18 18 18 18 18 17 17 17 17 17 17 17 17 17 17 17 17 16 16 16 16 16 16
21 20 20 20 19 19 19 19 18 18 18 18 18 18 18 18 18 18 18 18 18 18 18 17 17 18 18 17 17 17 17 17 16 16 16 16 16 16 16 16 16 16 16
21 21 20 20 20 19 19 19 19 19 19 18 18 18 18 18 18 18 18 18 18 18 18 17 17 17 17 17 17 17 17 17 16 16 16 16 16 16 16 16 16 16 16
21 21 21 20 20 20 19 19 19 19 19 19 18 18 18 18 18 18 18 18 18 18 18 17 17 17 17 17 17 17 17 17 17 16 16 16 16 16 16 16 16 16 16
21 21 21 21 20 20 19 19 19 19 19 19 18 18 18 18 18 18 18 18 18 18 18 17 17 17 17 17 17 17 17 17 16 16 16 16 15 15 15 15 15 15 15
Wind_Speed
2 5 10 11 12 12 12 12 12 13 14 15 15 16 16 17 17 17 17 17 18 19 20 20 20 20 20 20 20 20 21 20 20 19 19 18 18 18 18 18 17 16 17
6 8 12 12 12 12 12 12 13 13 14 14 15 15 16 17 17 17 17 18 18 19 19 19 19 19 19 19 20 20 20 20 19 18 18 17 17 16 16 16 16 15 17
8 9 12 13 12 12 12 12 13 13 14 15 15 15 16 17 17 17 17 17 17 18 18 18 17 17 17 18 19 19 19 18 18 17 16 14 14 15 15 16 16 16 16
10 10 11 13 13 12 12 13 13 13 14 15 15 15 16 16 16 17 17 17 17 17 17 16 16 16 16 17 17 17 17 17 16 15 12 12 12 14 15 15 15 15 15
9 11 12 13 13 13 12 12 12 13 14 15 15 15 15 15 16 16 16 16 16 16 16 15 15 15 15 15 15 15 15 15 14 13 11 11 11 14 14 15 15 15 14
8 10 12 13 13 13 12 12 13 13 14 14 15 15 15 15 15 15 15 15 15 15 14 14 14 14 13 13 13 13 12 13 12 10 10 10 11 13 14 14 14 14 14
8 9 12 13 13 13 12 13 13 13 14 14 14 14 14 14 14 14 14 14 14 14 14 13 13 12 12 11 11 11 11 12 10 9 9 10 12 13 13 14 13 13 13
10 9 11 13 13 13 12 13 13 13 13 13 13 13 13 13 14 14 13 13 13 13 13 12 11 10 10 9 9 9 10 11 10 9 9 10 12 13 13 13 13 13 13
10 9 8 10 12 12 12 12 12 12 12 12 13 12 12 13 13 13 13 12 12 12 11 10 10 9 8 8 8 8 9 10 9 9 9 9 11 12 13 13 13 13 12
8 7 7 8 9 10 11 11 11 12 12 12 12 11 11 12 12 12 11 11 11 11 10 9 9 8 7 7 7 7 9 9 8 8 8 9 11 12 13 13 13 12 12
9 7 6 6 7 9 9 10 10 10 10 10 10 10 9 8 9 9 10 10 10 9 9 8 8 7 6 5 6 6 7 7 8 8 8 11 12 12 12 12 12 12 12
8 7 6 6 6 7 7 8 7 7 7 7 7 7 7 7 7 7 9 9 9 8 7 7 6 5 3 2 3 4 6 8 7 8 9 12 12 13 13 13 12 12 11
8 8 7 7 7 6 5 6 5 5 6 6 7 8 7 6 5 5 5 5 6 6 4 4 3 3 3 2 2 3 6 7 7 8 10 12 12 13 13 13 13 12 11
7 7 7 7 6 6 6 5 5 4 4 4 6 8 7 4 4 4 3 4 4 4 4 4 3 3 3 4 3 4 6 7 7 8 11 12 13 13 13 13 13 12 11
7 7 7 7 6 5 4 3 4 4 4 5 5 6 7 4 3 3 3 3 4 4 4 3 3 2 2 3 3 4 5 7 8 8 9 12 13 13 13 12 12 11 11
7 7 6 6 6 5 4 3 2 3 4 4 4 5 7 6 5 3 2 2 3 4 4 4 3 3 3 2 1 2 5 7 8 8 9 11 12 13 13 13 12 12 11
7 6 6 6 5 5 4 3 3 4 5 3 3 5 6 7 6 4 2 2 2 3 3 3 2 2 2 2 1 2 4 6 7 8 9 9 10 12 12 12 12 12 12
7 7 6 6 6 5 4 3 3 3 4 3 4 4 6 6 6 5 2 2 2 3 3 2 2 2 1 1 1 1 2 3 5 7 8 8 9 9 11 12 12 11 11
8 7 6 6 6 5 4 3 3 3 3 3 3 3 5 5 6 5 3 2 3 3 2 2 2 2 2 1 0 0 1 2 3 5 5 7 8 9 9 10 11 11 11
8 7 6 5 5 5 3 3 2 2 1 2 3 3 5 4 5 5 3 2 3 2 1 1 2 1 2 1 1 2 1 0 1 2 3 4 6 8 8 8 7 8 9
7 6 6 6 5 4 3 3 2 1 1 1 1 4 5 5 5 4 3 2 2 2 2 2 2 2 1 1 2 2 3 2 1 1 1 1 1 4 5 6 6 5 5
8 7 6 6 5 5 4 3 3 3 2 2 1 2 4 5 5 4 3 3 2 2 2 2 2 2 1 2 3 2 1 3 3 2 1 2 2 2 3 4 4 4 4
9 8 8 6 6 5 4 3 2 2 1 1 1 1 2 4 4 4 4 3 2 3 2 2 2 3 2 1 2 3 2 2 1 2 1 1 1 1 2 3 4 3 3
10 9 7 7 6 5 5 5 5 4 3 3 2 2 2 2 3 4 4 4 3 2 3 3 2 2 3 2 1 1 2 4 2 0 2 1 1 1 1 2 3 4 4
10 9 7 7 6 5 5 6 5 3 3 2 2 2 2 1 2 3 4 3 3 3 3 3 2 2 3 3 2 1 1 1 2 2 1 1 1 1 1 1 2 3 3
9 9 8 7 6 6 6 6 6 6 5 4 3 2 1 0 1 2 3 2 2 2 2 2 2 3 2 2 2 2 2 2 2 2 2 2 1 1 1 1 2 2 3
Wind_Direction
119 123 112 103 98 94 90 89 88 89 90 92 92 96 100 102 102 102 105 108 110 110 110 112 113 112 114 116 117 117 118 118 117 119 120 119 120 120 120 118 114 112 114
139 122 113 107 102 98 94 93 94 93 93 96 99 101 103 104 103 104 106 109 113 114 114 112 113 114 115 117 117 118 119 119 119 119 120 121 121 122 122 121 118 118 118
126 118 111 107 104 101 99 98 98 97 97 101 104 105 106 106 106 107 109 111 113 116 117 117 116 117 119 119 119 120 120 121 121 120 118 115 120 124 124 124 122 121 121
128 123 116 112 107 104 102 103 102 102 103 105 107 108 108 109 111 111 110 110 113 116 118 118 119 121 122 122 122 123 124 125 125 124 119 119 124 126 126 125 125 124 123
124 123 122 117 112 108 105 105 106 107 108 111 111 111 111 111 110 112 113 114 114 116 119 120 121 123 125 123 124 124 126 127 127 125 122 124 128 131 130 129 129 127 127
126 128 126 120 116 112 108 108 108 111 112 114 114 114 115 114 112 113 114 116 118 120 122 123 123 123 125 126 126 126 128 129 127 123 127 131 134 137 135 135 134 133 132
133 134 130 125 121 117 114 114 113 115 115 115 115 115 116 116 115 115 115 117 120 124 125 124 123 123 122 127 130 128 129 135 129 127 131 137 141 142 141 140 139 138 136
141 139 135 133 128 124 121 121 120 118 118 119 120 120 118 118 118 118 118 120 121 124 125 125 125 124 121 122 125 127 132 140 134 134 133 140 147 149 147 146 145 144 143
142 139 137 138 136 132 129 125 126 127 127 127 127 125 124 123 122 122 123 123 125 127 128 128 129 128 123 119 121 128 135 143 135 136 141 146 153 154 154 152 151 151 150
141 142 145 144 141 139 137 133 131 133 135 134 133 131 130 130 129 129 130 132 132 132 133 132 133 132 129 125 125 129 138 140 137 142 146 156 158 158 158 158 158 157 157
144 150 156 152 154 153 151 146 142 140 143 143 142 140 134 132 136 140 143 143 143 143 142 142 143 143 140 141 142 135 140 144 145 149 158 164 166 166 163 164 165 164 164
154 161 161 159 157 161 158 150 153 149 151 154 156 154 150 152 157 156 158 158 158 155 154 156 157 157 161 158 157 138 147 153 151 158 168 168 170 168 168 169 169 169 169
157 159 166 166 162 160 151 154 162 163 164 167 172 179 172 167 161 151 152 160 165 168 169 168 175 186 188 186 178 157 157 160 160 168 171 171 171 171 173 173 174 174 175
138 144 150 150 147 151 150 160 166 168 172 179 184 182 168 156 154 154 156 170 172 176 172 176 186 198 218 218 197 167 162 163 162 167 173 174 175 176 177 176 176 176 178
136 141 143 140 138 138 136 145 147 163 170 169 166 170 162 154 160 162 171 176 184 188 184 181 194 200 206 213 204 176 163 159 163 165 170 171 172 176 179 180 179 178 182
142 145 143 138 137 132 132 133 143 158 156 152 157 162 158 159 160 158 165 172 184 187 190 187 195 190 225 163 170 167 161 157 159 165 172 178 183 188 188 188 188 190 193
147 143 144 142 135 134 132 134 144 153 146 146 162 154 146 153 158 156 159 169 185 182 174 161 167 159 150 155 177 157 145 155 159 169 175 181 188 192 194 195 197 199 201
145 143 148 146 140 142 138 135 132 138 145 153 160 153 149 154 158 150 149 171 167 144 142 146 149 137 138 134 139 147 146 157 167 173 180 185 188 192 197 200 201 204 209
151 147 143 139 147 152 144 132 130 128 133 141 144 151 155 154 156 148 153 173 150 132 139 162 141 143 142 155 194 78 162 176 179 178 178 189 194 197 200 203 204 208 215
148 145 142 141 150 148 136 119 104 97 117 128 141 159 164 161 161 153 157 165 145 134 136 142 146 136 153 163 101 44 13 274 155 176 192 191 199 204 205 203 204 214 221
146 145 148 148 160 150 143 141 141 155 164 168 177 171 170 166 164 157 149 149 144 145 161 154 142 126 123 120 90 35 11 17 356 213 168 147 173 198 195 193 193 201 214
161 160 158 162 167 167 171 168 165 160 172 176 171 155 168 167 163 158 147 154 156 144 135 145 138 139 166 137 131 109 14 1 7 6 76 132 143 134 144 165 172 183 196
170 171 171 173 173 177 172 149 130 100 79 82 133 185 186 170 167 162 164 158 164 159 167 182 167 159 178 217 156 144 153 213 309 351 14 92 120 126 147 154 156 170 180
181 175 169 170 173 176 166 156 156 160 175 196 182 183 193 184 173 169 165 165 176 174 175 192 167 169 163 190 223 171 171 165 166 254 339 7 38 107 133 136 144 148 156
180 174 170 167 170 171 166 166 161 166 178 172 153 155 180 201 181 170 164 162 172 179 183 181 165 164 170 179 188 177 149 151 152 162 220 308 9 21 98 123 109 115 142
175 171 168 168 176 176 173 170 168 172 169 155 151 154 167 177 175 167 154 156 168 174 178 183 177 168 174 173 182 176 168 170 183 166 183 205 210 345 49 75 97 100 101
Height
1530 1529 1528 1527 1527 1526 1524 1523 1522 1521 1521 1520 1519 1519 1519 1519 1520 1521 1521 1521 1522 1523 1524 1526 1528 1530 1531 1534 1536 1538 1540 1542 1544 1546 1547 1549 1550 1552 1553 1554 1555 1555 1556
1530 1530 1530 1529 1528 1527 1526 1525 1524 1523 1522 1522 1521 1521 1522 1522 1522 1523 1524 1524 1525 1526 1528 1530 1532 1533 1535 1537 1538 1540 1542 1544 1546 1548 1549 1550 1552 1553 1554 1555 1556 1557 1558
1531 1530 1530 1530 1529 1528 1527 1526 1525 1525 1524 1524 1524 1524 1524 1525 1525 1526 1527 1527 1528 1530 1531 1533 1535 1537 1538 1540 1541 1543 1544 1546 1548 1549 1551 1552 1553 1555 1556 1557 1557 1558 1559
1532 1532 1531 1531 1530 1529 1528 1528 1527 1526 1526 1526 1526 1526 1527 1528 1528 1529 1529 1530 1531 1532 1534 1536 1537 1539 1541 1542 1544 1545 1547 1548 1550 1551 1552 1554 1555 1556 1557 1558 1559 1559 1560
1533 1533 1533 1532 1531 1531 1530 1529 1529 1528 1528 1528 1528 1529 1529 1530 1531 1531 1532 1533 1534 1535 1537 1538 1540 1541 1543 1545 1546 1548 1549 1550 1552 1553 1554 1555 1556 1557 1558 1559 1560 1561 1561
1534 1534 1534 1534 1533 1532 1532 1531 1531 1530 1530 1531 1531 1531 1532 1533 1533 1534 1535 1536 1537 1538 1539 1541 1542 1544 1546 1547 1548 1550 1551 1552 1553 1554 1555 1556 1557 1558 1559 1560 1561 1562 1563
1535 1535 1535 1535 1535 1534 1534 1533 1533 1533 1533 1533 1534 1534 1535 1535 1536 1537 1537 1538 1539 1540 1542 1543 1544 1546 1547 1549 1550 1551 1553 1554 1555 1556 1557 1558 1559 1559 1560 1561 1562 1563 1564
1536 1537 1537 1537 1537 1536 1536 1535 1535 1535 1536 1536 1536 1537 1538 1538 1539 1540 1540 1541 1542 1543 1544 1545 1547 1548 1549 1551 1552 1553 1554 1555 1556 1557 1558 1559 1560 1561 1561 1562 1563 1564 1565
1538 1538 1538 1539 1538 1538 1538 1538 1538 1537 1538 1538 1539 1539 1540 1541 1542 1542 1543 1544 1544 1546 1547 1548 1549 1550 1551 1553 1554 1554 1555 1556 1557 1558 1559 1560 1561 1562 1562 1563 1564 1565 1566
1540 1540 1540 1540 1540 1540 1540 1540 1540 1540 1540 1541 1541 1542 1543 1543 1544 1545 1546 1547 1547 1548 1549 1550 1551 1552 1553 1554 1555 1556 1557 1558 1558 1559 1560 1561 1561 1562 1563 1564 1565 1565 1566
1542 1542 1542 1542 1542 1542 1542 1542 1542 1542 1543 1543 1544 1544 1545 1546 1546 1547 1548 1549 1550 1551 1551 1552 1553 1554 1555 1556 1557 1557 1558 1559 1560 1560 1560 1561 1562 1562 1563 1564 1565 1565 1566
1542 1543 1543 1543 1543 1544 1544 1544 1544 1545 1545 1545 1546 1546 1547 1548 1549 1549 1550 1551 1551 1552 1553 1554 1555 1556 1557 1558 1558 1559 1559 1560 1560 1560 1561 1561 1562 1563 1563 1564 1565 1566 1566
1543 1543 1544 1544 1544 1545 1545 1545 1546 1546 1546 1547 1547 1548 1549 1549 1550 1551 1551 1552 1553 1554 1554 1555 1556 1557 1558 1559 1559 1559 1560 1560 1561 1561 1561 1562 1562 1563 1563 1564 1565 1566 1566
1543 1544 1544 1545 1545 1545 1546 1546 1547 1547 1548 1548 1548 1549 1550 1550 1551 1552 1552 1553 1554 1555 1555 1556 1557 1558 1559 1559 1560 1560 1560 1561 1561 1561 1561 1562 1562 1563 1563 1564 1565 1566 1566
1543 1544 1545 1545 1546 1546 1547 1547 1547 1548 1548 1549 1549 1550 1550 1551 1552 1552 1553 1554 1555 1555 1556 1557 1557 1558 1558 1559 1560 1560 1560 1561 1561 1561 1561 1562 1562 1563 1563 1564 1565 1565 1566
1543 1544 1545 1545 1546 1546 1547 1547 1547 1548 1548 1549 1550 1550 1551 1551 1552 1553 1553 1554 1555 1556 1556 1557 1557 1558 1559 1559 1560 1560 1560 1561 1561 1561 1562 1562 1562 1563 1563 1564 1564 1565 1566
1543 1544 1545 1545 1546 1546 1546 1547 1547 1548 1548 1549 1550 1550 1551 1552 1552 1553 1553 1554 1555 1556 1556 1556 1557 1558 1558 1559 1559 1560 1560 1561 1561 1561 1561 1562 1562 1563 1563 1563 1564 1564 1565
1543 1544 1544 1545 1545 1546 1546 1546 1547 1548 1548 1549 1549 1550 1551 1551 1552 1552 1553 1554 1554 1555 1556 1556 1557 1557 1558 1558 1559 1559 1560 1560 1561 1561 1561 1562 1562 1562 1562 1562 1563 1563 1564
1542 1543 1544 1544 1545 1545 1546 1546 1547 1547 1548 1549 1549 1550 1550 1551 1552 1552 1553 1553 1554 1554 1555 1556 1556 1557 1557 1558 1558 1559 1559 1559 1560 1560 1560 1561 1561 1561 1561 1562 1562 1562 1562
1542 1543 1543 1544 1544 1545 1545 1546 1547 1547 1548 1548 1549 1549 1550 1550 1551 1551 1552 1552 1553 1553 1554 1554 1555 1556 1556 1557 1557 1557 1558 1558 1558 1558 1559 1559 1559 1560 1560 1560 1560 1561 1561
1542 1543 1543 1543 1544 1544 1545 1545 1546 1546 1547 1548 1548 1548 1549 1550 1550 1551 1551 1551 1552 1553 1553 1553 1554 1554 1555 1556 1556 1556 1557 1557 1557 1557 1557 1557 1557 1558 1558 1559 1559 1559 1559
1541 1542 1542 1543 1543 1544 1545 1545 1546 1546 1546 1547 1547 1548 1548 1549 1549 1550 1550 1551 1551 1552 1552 1552 1553 1553 1554 1554 1555 1555 1556 1557 1556 1556 1556 1556 1556 1556 1556 1557 1557 1557 1557
1540 1541 1542 1542 1543 1543 1544 1545 1545 1545 1545 1546 1546 1547 1547 1548 1548 1549 1549 1550 1550 1551 1551 1551 1552 1552 1552 1553 1554 1555 1555 1554 1555 1555 1555 1554 1555 1555 1554 1554 1555 1554 1555
1540 1540 1541 1542 1542 1543 1543 1544 1544 1544 1544 1545 1546 1546 1547 1547 1548 1548 1549 1549 1549 1549 1550 1550 1550 1551 1551 1551 1552 1553 1554 1554 1554 1554 1554 1554 1553 1553 1553 1553 1553 1553 1552
1539 1540 1541 1542 1542 1542 1543 1543 1544 1544 1544 1545 1545 1546 1546 1547 1547 1548 1548 1548 1548 1548 1548 1548 1549 1549 1549 1550 1550 1551 1551 1552 1552 1552 1552 1552 1552 1552 1552 1552 1551 1551 1551
1537 1539 1540 1541 1541 1542 1542 1543 1543 1543 1544 1544 1545 1545 1546 1546 1546 1547 1547 1547 1547 1547 1547 1547 1547 1547 1547 1548 1548 1549 1549 1549 1549 1550 1550 1550 1550 1551 1550 1550 1550 1550 1549